Location: Caltech
(34.1382°N, 118.1253°W)
Time: 06:15:43
(UTC-07:00)

Iridium 91 - Visible Passes

Search period start: 29 March 2017 00:00
Search period end: 08 April 2017 00:00
Orbit: 776 x 779 km, 86.4° (Epoch: 27 March)

Date Brightness Start Highest point End Pass type
(mag) Time Alt. Az. Time Alt. Az. Time Alt. Az.
29 Mar 7.1 20:14:27 10° NE 20:16:59 15° ENE 20:16:59 15° ENE visible
29 Mar 6.6 21:53:27 10° NNW 21:57:30 43° NW 21:57:30 43° NW visible
30 Mar 5.4 21:19:45 10° N 21:24:39 78° NNE 21:24:39 78° NNE visible
31 Mar 5.8 20:46:27 10° NNE 20:51:26 44° E 20:51:51 43° E visible
31 Mar 7.9 22:28:26 10° NW 22:31:43 17° W 22:32:22 17° W visible
01 Apr 6.6 20:13:39 10° NNE 20:17:45 23° E 20:19:05 21° ESE visible
01 Apr 7.0 21:53:51 10° NNW 21:58:26 32° W 21:59:37 29° WSW visible
02 Apr 7.3 19:42:07 10° NE 19:43:56 12° ENE 19:45:45 10° E visible
02 Apr 5.9 21:19:54 10° N 21:25:04 63° W 21:26:55 38° SSW visible
03 Apr 5.4 20:46:22 10° N 20:51:34 66° E 20:54:17 28° SSE visible
03 Apr 8.4 22:30:14 10° WNW 22:31:35 11° WNW 22:32:56 10° W visible
04 Apr 6.2 20:13:14 10° NNE 20:17:58 34° E 20:21:44 15° SE visible
04 Apr 7.7 21:54:28 10° NNW 21:58:24 22° W 22:02:16 10° SW visible
05 Apr 6.9 19:40:44 10° NE 19:44:13 18° E 19:47:41 10° ESE visible
05 Apr 6.7 21:20:11 10° NNW 21:25:05 42° W 21:29:48 11° SSW visible
06 Apr 5.5 20:46:25 10° N 20:51:39 83° W 20:56:52 10° S visible
07 Apr 5.7 20:13:01 10° N 20:18:06 50° E 20:23:10 10° SSE visible
07 Apr 8.3 21:55:30 10° NW 21:58:18 15° W 22:01:05 10° WSW visible
